Location: Maccacari
(45.1333°N, 11.1333°E)
Time: 01:34:10
(UTC+00:00)

Tiros 1 despin weight - Pass Details

Date: 27 January 2021
Orbit: 593 x 642 km, 48.2° (Epoch: 07 March)

Event Time Altitude Azimuth Distance (km) Brightness Sun altitude
Rises 16:03:34 0° 285° (WNW) 2,878 ? 1.1°
Reaches altitude 10° 16:05:55 10° 288° (WNW) 1,964 ? 0.8°
Maximum altitude 16:10:24 66° 11° (N) 659 ? 0.1°
Drops below altitude 10° 16:14:49 10° 95° (E) 1,934 ? -0.6°
Sets 16:17:06 0° 98° (E) 2,831 ? -1.0°
